Regional Weather Roundup
Issued by NWS Goodland, KS

Home | Current Version | Previous Version | Graphics & Text | Print | Product List | Glossary On
Versions: 1 2 3 4 5 6 7 8 9 10 11 12 13 14 15 16 17 18 19 20 21 22 23 24 25 26 27 28 29 30 31 32 33 34 35 36 37 38 39 40 41 42 43 44 45 46 47 48 49 50
000
ASUS43 KGLD 250359
RWRGLD

GOODLAND FORECAST AREA HOURLY WEATHER ROUNDUP
NATIONAL WEATHER SERVICE GOODLAND KS
1000 PM MDT THU JUL 24 2014

...OFFICIAL OBSERVATIONS...

CITY           SKY/WX    TMP DP  RH WIND       PRES   REMARKS
GOODLAND KS    CLOUDY    88  48  25 SW14G22   29.93S
HILL CITY KS   CLOUDY    86  69  56 S20G29    29.85F
IMPERIAL NEB   CLOUDY    74  61  63 CALM      29.89R
MCCOOK NEB     CLOUDY    87  57  35 S9        29.86F
AKRON CO       MOCLDY    77  51  40 S8        30.03S
BURLINGTON CO  CLOUDY    78  51  38 NE6       29.98R
LIMON CO       CLOUDY    71  55  56 W22G29    30.12F
$$

...UNOFFICIAL OBSERVATIONS...

CITY           SKY/WX    TMP DP  RH WIND       PRES   REMARKS
COLBY KS       CLEAR     88  57  35 S15       29.90S
GOVE KS          N/A     82  32  16 MISG        N/A
NORTON KS      CLEAR     86  64  48 S16G24    29.84F
SHARON SPRINGS   N/A     86  53  31 S14         N/A
WAKEENEY KS      N/A     84  66  53 MISG        N/A
TRENTON NEB      N/A     84  32  15 SE10        N/A
KIT CARSON CO    N/A     85  51  30 N16         N/A
YUMA CO          N/A     71  61  70 SW5         N/A
$$



USA.gov is the U.S. government's official web portal to all federal, state and local government web resources and services.